EST,Max TemperatureF,Mean TemperatureF,Min TemperatureF,Max Dew PointF,MeanDew PointF,Min DewpointF,Max Humidity, Mean Humidity, Min Humidity, Max Sea Level PressureIn, Mean Sea Level PressureIn, Min Sea Level PressureIn, Max VisibilityMiles, Mean VisibilityMiles, Min VisibilityMiles, Max Wind SpeedMPH, Mean Wind SpeedMPH, Max Gust SpeedMPH,PrecipitationIn, CloudCover, Events, WindDirDegrees
2012-1-1,48,38,28,45,34,19,93,78,55,30.05,29.85,29.70,10,9,1,29,15,48,0.04,6,Rain,235
2012-1-2,30,26,21,23,20,16,93,80,66,30.18,30.05,29.97,10,5,1,22,16,33,0.00,8,Snow,274
2012-1-3,21,18,16,16,12,8,86,73,62,30.36,30.29,30.20,10,8,1,21,13,28,0.00,4,Snow,293
2012-1-4,32,25,18,25,16,10,79,66,54,30.28,30.10,29.97,10,10,10,14,8,18,0.00,2,,204
2012-1-5,43,34,26,27,24,23,89,68,45,30.10,29.99,29.89,10,10,7,14,7,,0.00,0,,224
2012-1-6,55,46,37,34,31,28,70,57,45,29.89,29.83,29.78,10,10,10,16,10,28,0.00,0,,212
2012-1-7,48,41,33,35,31,28,83,70,48,30.19,29.96,29.77,10,10,10,13,8,,0.00,1,,274
2012-1-8,42,34,25,28,23,18,92,68,38,30.37,30.31,30.21,10,10,10,7,4,,0.00,1,,5
2012-1-9,43,34,26,24,23,22,85,62,45,30.29,30.14,30.04,10,10,10,9,3,,0.00,1,,243
2012-1-10,48,38,28,31,27,22,82,67,48,30.11,30.03,29.94,10,10,10,12,6,,0.00,0,,227
2012-1-11,45,36,28,44,37,26,100,90,78,29.93,29.61,29.42,10,7,2,9,6,,0.10,6,Rain,101
2012-1-12,45,32,19,45,34,12,100,89,74,29.62,29.45,29.36,10,4,1,25,11,34,0.18,8,Rain-Snow,233
2012-1-13,19,17,15,13,11,8,81,74,68,30.08,29.81,29.59,9,4,1,29,22,38,0.00,8,Snow,240
2012-1-14,19,18,14,13,12,10,88,74,68,30.25,30.14,30.04,10,8,3,14,9,21,0.00,8,Snow,273
2012-1-15,25,16,8,16,12,5,92,78,65,30.52,30.42,30.26,10,7,5,8,4,,0.00,0,,146
2012-1-16,46,34,23,41,30,16,89,78,64,30.34,30.09,29.92,10,9,2,18,11,31,0.00,5,Rain,179
2012-1-17,55,42,30,51,40,23,97,85,75,30.06,29.78,29.56,10,8,2,33,17,48,0.51,8,Rain-Snow,235
2012-1-18,30,26,21,25,17,13,80,67,53,30.28,30.18,30.05,10,10,8,16,11,25,0.00,6,Snow,287
2012-1-19,30,22,12,27,20,5,93,80,71,30.17,29.98,29.85,10,6,0,17,11,28,0.01,6,Fog-Snow,249
2012-1-20,21,14,7,19,12,3,93,79,58,30.30,30.11,29.94,10,7,2,12,6,,0.07,5,Rain-Snow,56
2012-1-21,27,23,19,21,19,15,93,85,75,30.28,30.07,29.89,10,7,2,14,9,18,0.09,8,Snow,21
2012-1-22,37,26,17,36,29,14,100,94,84,30.26,30.10,29.94,9,4,0,14,7,,0.02,8,Fog-Rain,130
2012-1-23,57,47,37,49,40,29,100,80,70,29.97,29.77,29.57,10,8,4,28,16,39,0.21,7,Rain-Thunderstorm,212
2012-1-24,37,34,28,30,27,23,82,77,72,30.36,30.19,29.98,10,9,5,15,11,24,0.00,7,,267
2012-1-25,33,30,26,30,26,23,93,83,75,30.38,30.30,30.16,9,7,3,13,3,,0.05,7,Rain,106
2012-1-26,46,39,32,47,41,30,100,98,93,30.13,29.75,29.46,10,2,0,10,5,,0.95,8,Fog-Rain,122
2012-1-27,44,38,33,45,34,28,100,90,76,30.07,29.75,29.44,10,6,2,18,12,28,0.12,8,Rain-Snow,272
2012-1-28,37,34,30,34,26,14,100,77,42,30.23,30.00,29.87,10,6,1,26,10,43,0.03,6,Snow,224
2012-1-29,39,32,24,27,21,18,86,68,47,30.29,30.15,30.00,10,8,1,30,14,45,0.00,3,Snow,249
2012-1-30,48,34,19,30,23,17,89,65,45,30.32,30.21,30.08,10,10,8,17,7,25,0.00,3,,182
2012-1-31,60,52,43,45,34,27,93,56,36,30.13,30.06,30.00,10,10,9,25,14,38,0.01,4,Rain,214
2012-2-1,57,48,39,48,42,36,93,76,51,30.07,30.04,29.98,10,9,4,14,10,22,0.01,3,Rain,274
2012-2-2,44,38,30,37,33,28,96,82,57,30.43,30.23,30.07,10,7,3,12,7,,0.00,4,,333
2012-2-3,48,36,25,31,29,24,96,76,52,30.52,30.43,30.34,10,8,4,7,2,,0.00,0,,100
2012-2-4,39,36,33,36,34,31,100,89,79,30.32,30.19,30.10,10,6,2,9,6,,0.12,8,Rain-Snow,51
2012-2-5,45,36,28,34,29,26,100,85,48,30.29,30.19,30.09,10,6,2,10,6,,0.00,3,,359
2012-2-6,46,34,23,30,25,21,100,76,42,30.26,30.20,30.13,10,6,0,12,2,16,0.00,0,Fog,249
2012-2-7,34,31,28,30,27,25,92,79,70,30.29,30.24,30.15,10,7,5,10,4,,0.00,7,Rain,339
2012-2-8,32,28,23,28,25,20,92,84,74,30.31,30.27,30.23,10,6,1,12,7,,0.01,6,Snow,345
2012-2-9,34,26,19,27,22,17,89,77,59,30.35,30.29,30.22,10,10,7,12,6,,0.00,5,,236
2012-2-10,32,30,28,29,25,17,96,84,61,30.19,29.99,29.85,10,4,1,14,8,,0.03,8,Snow,204
2012-2-11,30,21,12,29,12,2,93,75,52,30.29,30.06,29.82,10,7,2,24,14,37,0.00,6,Snow,300
2012-2-12,27,21,15,17,12,7,78,70,58,30.30,30.26,30.21,10,9,5,20,14,28,0.00,5,Snow,266
2012-2-13,34,26,18,22,17,14,84,64,46,30.25,30.16,30.01,10,10,10,10,6,,0.00,3,,214
2012-2-14,35,32,30,34,30,19,100,87,56,30.12,29.95,29.87,10,5,1,10,6,,0.05,8,Snow,203
2012-2-15,44,38,33,37,32,28,86,78,65,30.27,30.19,30.09,10,10,8,12,6,,0.00,7,Rain,179
2012-2-16,46,42,37,46,41,34,100,91,76,30.14,30.02,29.95,10,5,2,18,7,23,0.19,8,Rain,215
2012-2-17,45,38,30,35,27,22,93,69,40,30.19,30.15,30.09,10,7,2,14,6,20,0.00,2,,259
2012-2-18,45,36,27,30,24,20,79,65,49,30.17,30.09,30.04,10,10,10,16,7,24,0.00,2,,315
2012-2-19,37,29,21,23,20,18,86,73,52,30.17,30.11,30.03,10,10,10,16,8,23,0.00,1,,22
2012-2-20,39,30,21,21,20,18,86,66,47,30.38,30.27,30.16,10,10,10,12,5,,0.00,4,,62
2012-2-21,48,40,33,41,31,19,86,70,52,30.11,29.88,29.78,10,10,8,20,12,29,0.03,6,Rain,191
2012-2-22,55,46,37,36,33,29,86,61,38,29.83,29.59,29.42,10,10,9,24,11,32,0.00,3,Rain,216
2012-2-23,50,41,32,39,34,30,96,76,48,29.65,29.53,29.42,10,8,2,13,3,,0.06,4,Rain,110
2012-2-24,46,40,32,40,32,25,100,77,53,29.88,29.57,29.34,10,9,6,28,12,45,0.00,7,Snow,258
2012-2-25,33,29,24,20,17,15,71,59,48,30.40,30.14,29.89,10,10,9,23,16,36,0.00,7,Snow,274
2012-2-26,46,32,19,19,17,15,85,53,30,30.47,30.34,30.23,10,10,10,15,5,20,0.00,0,,167
2012-2-27,57,42,27,28,22,17,78,48,28,30.50,30.30,30.21,10,10,10,25,10,36,0.00,1,,255
2012-2-28,50,36,21,27,22,19,92,60,33,30.51,30.38,30.09,10,9,6,10,4,,0.00,2,Rain,93
2012-2-29,69,54,39,57,43,26,100,77,48,30.05,29.73,29.55,10,7,2,21,11,33,0.50,6,Rain-Thunderstorm,173